Location: Lucerne Valley
(34.4439°N, 116.9669°E)
Time: 15:05:59
(UTC-07:00)

Vanguard 3 - All Passes

Search period start: 16 October 2017 00:00
Search period end: 26 October 2017 00:00
Orbit: 510 x 3263 km, 33.3° (Epoch: 15 October)

Date Brightness Start Highest point End Pass type
(mag) Time Alt. Az. Time Alt. Az. Time Alt. Az.
16 Oct - 11:33:26 10° SSW 11:44:43 24° SSE 11:52:42 10° ESE visible
16 Oct - 13:46:21 10° SW 13:58:41 49° SSE 14:05:43 10° E visible
16 Oct - 16:02:17 10° WSW 16:11:24 78° S 16:16:34 10° E daylight
16 Oct - 18:17:28 10° W 18:23:11 64° SSW 18:27:04 10° ESE daylight
16 Oct - 20:31:42 10° WSW 20:33:58 15° SSW 20:36:09 10° S daylight
17 Oct - 10:20:33 10° S 10:29:21 16° SSE 10:36:31 10° ESE visible
17 Oct - 12:30:26 10° SW 12:43:59 39° SSE 12:52:17 10° E visible
17 Oct - 14:45:53 10° WSW 14:57:26 69° SSE 15:03:45 10° E visible
17 Oct - 17:02:06 10° W 17:09:47 80° S 17:14:22 10° E daylight
17 Oct - 19:16:41 10° W 19:21:01 32° SSW 19:24:25 10° SE daylight
18 Oct - 11:15:15 10° SSW 11:28:49 30° SSE 11:38:07 10° E visible
18 Oct - 13:29:15 10° SW 13:43:01 57° SSE 13:50:44 10° E visible
18 Oct - 15:45:56 10° W 15:56:02 82° S 16:01:36 10° E daylight
18 Oct - 18:01:39 10° W 18:07:57 58° SSW 18:12:02 10° ESE daylight
18 Oct - 20:17:05 10° WSW 20:18:34 12° SW 20:19:58 10° SSW daylight
19 Oct - 10:01:29 10° S 10:13:19 21° SE 10:22:34 10° ESE visible
19 Oct - 12:12:55 10° SW 12:28:07 46° SSE 12:37:19 10° E visible
19 Oct - 14:29:10 10° WSW 14:41:53 75° S 14:48:46 10° E visible
19 Oct - 16:45:58 10° W 16:54:30 78° S 16:59:25 10° ESE daylight
19 Oct - 19:01:09 10° W 19:05:41 28° SSW 19:09:06 10° SSE daylight
20 Oct - 08:51:00 10° SSE 08:57:35 13° SE 09:03:35 10° ESE visible
20 Oct - 10:57:20 10° SSW 11:12:46 36° SSE 11:23:14 10° E visible
20 Oct - 13:12:11 10° WSW 13:27:16 65° SSE 13:35:41 10° E visible
20 Oct - 15:29:29 10° W 15:40:36 84° S 15:46:38 10° E daylight
20 Oct - 17:45:42 10° W 17:52:39 53° SSW 17:56:57 10° SE daylight
21 Oct - 09:43:02 10° SSW 09:57:06 26° SE 10:08:00 10° E visible
21 Oct - 11:55:31 10° SW 12:12:08 53° SSE 12:22:13 10° E visible
21 Oct - 14:12:24 10° WSW 14:26:15 80° S 14:33:44 10° E visible
21 Oct - 16:29:42 10° W 16:39:08 75° SSW 16:44:26 10° ESE daylight
21 Oct - 18:45:32 10° W 18:50:16 24° SW 18:53:44 10° SSE daylight
22 Oct - 08:31:00 10° S 08:41:19 17° SE 08:50:26 10° ESE visible
22 Oct - 10:39:38 10° SSW 10:56:33 42° SSE 11:08:08 10° E visible
22 Oct - 12:55:08 10° WSW 13:11:23 71° SSE 13:20:34 10° E visible
22 Oct - 15:12:57 10° W 15:25:06 84° S 15:31:38 10° E daylight
22 Oct - 17:29:39 10° W 17:37:15 48° SSW 17:41:52 10° SE daylight
23 Oct - 09:24:59 10° SSW 09:40:43 31° SE 09:53:03 10° E visible
23 Oct - 11:38:13 10° SW 11:56:00 60° SSE 12:07:00 10° E visible
23 Oct - 13:55:36 10° W 14:10:33 83° S 14:18:39 10° E visible
23 Oct - 16:13:20 10° W 16:23:42 72° SSW 16:29:24 10° ESE daylight
23 Oct - 18:29:51 10° W 18:34:46 22° SW 18:38:19 10° SSE daylight
24 Oct - 08:12:13 10° S 08:24:52 21° SE 08:36:07 10° E visible
24 Oct - 10:22:08 10° SW 10:40:12 48° SSE 10:52:52 10° E visible
24 Oct - 12:38:07 10° WSW 12:55:25 76° SSE 13:05:22 10° E visible
24 Oct - 14:56:19 10° W 15:09:32 84° S 15:16:37 10° E visible
24 Oct - 17:13:29 10° W 17:21:45 44° SSW 17:26:43 10° SE daylight
25 Oct - 07:04:35 10° SSE 07:09:08 11° SE 07:13:38 10° ESE night (unlit)
25 Oct - 09:07:16 10° SSW 09:24:12 36° SE 09:37:49 10° E visible
25 Oct - 11:21:02 10° SW 11:39:46 66° SSE 11:51:42 10° E visible
25 Oct - 13:38:45 10° W 13:54:45 85° S 14:03:32 10° E visible
25 Oct - 15:56:50 10° W 16:08:09 68° SSW 16:14:21 10° ESE daylight
25 Oct - 18:14:07 10° W 18:19:08 20° SW 18:22:49 10° S daylight
